GSAT0216 (GALILEO 20) (43056 NORAD) Tracking and Keplerian Element Data

This shows tracking and keplerian element data for the satellite.

Feedback or suggestion? Click here.




ElementValue
Catalog43056
NameGSAT0216 (GALILEO 20)
Epoch Orbit2356
Epoch Day269.1662561
Epoch Year2021
RAAN268.9979
Inclination55.9253
Eccentricity0.0006147
Argument of Perigee274.7562
Mean Anonmoly85.1743
Mean Motion1.70474238
Decay Rate1.9E-07
L11 43056U 17079B 21269.16625610 .00000019 00000-0 00000+0 0 9998
L22 43056 55.9253 268.9979 0006147 274.7562 85.1743 1.70474238 23560

Live tracking and technical data element details for GSAT0216 (GALILEO 20) (NORAD 43056). GSAT0216 (GALILEO 20) can be tracked NOW for your location showing map with azimuth and elevation plus other details from your city location.

Track the satellite on the map from your city or location and see movement details for azimuth, elevation, latitude, longitude, range, height, and movement on the map or in text.







IsCatalogInMostPopularTable: catalog: 43056, numindb: 668
Update: records affected: 1



GetName: 43056 GSAT0216 (GALILEO 20)

Hit Count: updated at: Tue, 28 Sep 2021 15:42:04 GMT